Date,TemperatureHighF,TemperatureAvgF,TemperatureLowF,DewpointHighF,DewpointAvgF,DewpointLowF,HumidityHigh,HumidityAvg,HumidityLow,PressureMaxIn,PressureMinIn,WindSpeedMaxMPH,WindSpeedAvgMPH,GustSpeedMaxMPH,PrecipitationSumIn
2013-2-1,28,24,23,25,20,-100,99,89,69,0.00,40.00,41,30,51,0.37
2013-2-2,32,27,21,20,14,-100,93,62,37,0.00,40.00,42,30,58,0.02
2013-2-3,35,29,23,15,7,-100,55,40,29,0.00,40.00,33,20,43,0.00
2013-2-4,31,27,23,19,9,-100,64,53,42,0.00,40.00,39,28,54,0.00
2013-2-5,41,33,26,22,15,-100,65,51,37,0.00,40.00,40,32,52,0.00
2013-2-6,36,31,20,25,18,-100,77,60,39,0.00,40.00,31,22,37,0.00
2013-2-7,39,26,16,13,0,-100,74,37,14,0.00,40.00,21,14,26,0.00
2013-2-8,42,31,21,25,3,-100,92,36,22,0.00,40.00,18,7,25,0.00
2013-2-9,27,20,16,26,15,-100,97,89,71,0.00,40.00,14,6,23,0.58
2013-2-10,18,12,1,17,8,-100,95,90,78,0.00,40.00,11,6,14,0.15
2013-2-11,15,6,-3,4,-6,-100,78,65,50,0.00,40.00,25,10,32,0.00
2013-2-12,18,13,9,14,-1,-100,91,64,53,0.00,40.00,34,24,44,0.00
2013-2-13,23,20,16,22,13,-100,96,86,83,0.00,40.00,49,36,62,0.05
2013-2-14,23,17,12,20,9,-100,97,86,79,0.00,40.00,34,12,42,0.05
2013-2-15,23,18,14,18,11,-100,93,79,66,0.00,40.00,41,24,50,0.00
2013-2-16,33,27,22,20,12,-100,88,58,42,0.00,40.00,44,37,56,0.00
2013-2-17,34,27,18,21,12,-100,95,58,32,0.00,40.00,34,22,44,0.33
2013-2-18,19,15,13,16,4,-100,95,77,41,0.00,40.00,31,20,41,0.08
2013-2-19,37,25,16,14,-1,-100,52,36,20,0.00,40.00,17,6,24,0.00
2013-2-20,37,26,18,20,8,-100,96,54,33,0.00,40.00,11,5,20,0.01
2013-2-21,18,15,11,17,9,-100,96,87,78,0.00,40.00,17,7,23,0.12
2013-2-22,18,15,11,15,7,-100,92,79,67,0.00,40.00,47,26,57,0.00
2013-2-23,29,21,15,20,11,-100,92,70,55,0.00,40.00,46,24,57,0.01
2013-2-24,20,14,6,19,6,-100,95,84,72,0.00,40.00,15,9,21,0.40
2013-2-25,24,16,8,13,2,-100,77,62,50,0.00,40.00,30,19,40,0.01
2013-2-26,20,15,11,16,10,-100,95,86,68,0.00,40.00,31,13,39,0.01
2013-2-27,16,12,7,11,2,-100,93,73,64,0.00,40.00,31,19,39,0.00
2013-2-28,22,17,13,16,4,-100,82,67,60,0.00,40.00,38,28,45,0.00